DLH518 EDDF-MROC

Flight info

Callsign DLH518
Flight time N/A
Altitude 32000
Route ULKIG4L/18 ULKIG Y180 DIK UN857 TOLVU DCT RAPOR DCT GIMER DCT ESTOC UT300 SENLO UN502 JSY DCT LIZAD DCT GAPLI/M079F320 DCT SOMAX DCT 51N020W 51N030W 51N040W 50N050W DCT ELSIR DCT CARAC M201 VIRST DCT SNAGY/N0467F320 DCT WOLFO DCT VKZ DCT MCLAW Y442 FUNDI UM335 ALVEK UM328 SELEK UZ403 PIRAS BARRA3P
Aircraft A343/H-SDE2E3FGHIJ3J5M1P2RWXYZ/LB1D1

Departure

Time 2026-05-04 17:54
Airport Frankfurt Main Airport (EDDF)

Arrival

Time N/A
Airport Juan Santamaría International Airport (MROC)
Time Latitude Longitude Altitude Speed Heading
2026-05-04 17:43 50.04543 8.55920 360 ft 0 kts 251°
2026-05-04 17:46 50.04543 8.55918 360 ft 1 kts 248°
2026-05-04 17:46 50.04531 8.55912 365 ft 5 kts 202°
2026-05-04 17:46 50.04457 8.55898 366 ft 17 kts 183°
2026-05-04 17:47 50.04306 8.55945 363 ft 24 kts 168°
2026-05-04 17:47 50.04217 8.55846 364 ft 14 kts 246°
2026-05-04 17:47 50.04183 8.55701 364 ft 15 kts 250°
2026-05-04 17:47 50.04146 8.55543 363 ft 15 kts 250°
2026-05-04 17:48 50.04110 8.55391 363 ft 14 kts 249°
2026-05-04 17:48 50.04078 8.55260 366 ft 12 kts 249°
2026-05-04 17:48 50.04051 8.55147 363 ft 11 kts 249°
2026-05-04 17:48 50.04015 8.54999 361 ft 19 kts 249°
2026-05-04 17:49 50.03957 8.54762 359 ft 26 kts 249°
2026-05-04 17:49 50.03895 8.54501 356 ft 25 kts 249°
2026-05-04 17:49 50.03818 8.54262 356 ft 24 kts 239°
2026-05-04 17:49 50.03754 8.54032 356 ft 23 kts 250°
2026-05-04 17:50 50.03700 8.53794 350 ft 25 kts 250°
2026-05-04 17:50 50.03637 8.53536 350 ft 25 kts 248°
2026-05-04 17:50 50.03575 8.53294 354 ft 23 kts 249°
2026-05-04 17:50 50.03519 8.53062 351 ft 22 kts 249°
2026-05-04 17:51 50.03464 8.52843 336 ft 21 kts 248°
2026-05-04 17:51 50.03412 8.52656 335 ft 16 kts 238°
2026-05-04 17:51 50.03326 8.52595 335 ft 13 kts 187°
2026-05-04 17:51 50.03273 8.52596 334 ft 0 kts 178°
2026-05-04 17:52 50.03240 8.52596 337 ft 20 kts 179°
2026-05-04 17:53 50.02901 8.52595 334 ft 76 kts 180°
2026-05-04 17:53 50.02206 8.52600 336 ft 123 kts 180°
2026-05-04 17:53 50.01221 8.52609 336 ft 162 kts 180°
2026-05-04 17:53 49.99968 8.52636 454 ft 188 kts 177°
2026-05-04 17:54 49.98647 8.52754 944 ft 190 kts 179°
2026-05-04 17:54 49.97329 8.52829 1471 ft 193 kts 178°
2026-05-04 17:54 49.95983 8.52904 2027 ft 195 kts 178°
2026-05-04 17:54 49.94568 8.52991 2309 ft 213 kts 178°
2026-05-04 17:55 49.93024 8.53095 2549 ft 231 kts 177°
2026-05-04 17:55 49.91388 8.53210 2979 ft 240 kts 177°
2026-05-04 17:55 49.89656 8.53333 3248 ft 258 kts 177°
2026-05-04 17:55 49.87821 8.53408 3619 ft 270 kts 184°
2026-05-04 17:56 49.85959 8.52770 4091 ft 276 kts 199°
2026-05-04 17:56 49.84204 8.51781 4816 ft 275 kts 200°
2026-05-04 17:56 49.82361 8.50714 5464 ft 277 kts 200°
2026-05-04 17:56 49.80554 8.49680 6147 ft 276 kts 200°
2026-05-04 17:57 49.78771 8.48666 6812 ft 276 kts 200°
2026-05-04 17:57 49.76983 8.47556 7394 ft 279 kts 207°
2026-05-04 17:57 49.75390 8.45842 7952 ft 282 kts 224°
2026-05-04 17:57 49.74266 8.43355 8489 ft 287 kts 246°
2026-05-04 17:58 49.73913 8.40309 9044 ft 295 kts 273°
2026-05-04 17:58 49.74356 8.37194 9639 ft 299 kts 285°
2026-05-04 17:58 49.75165 8.34206 10156 ft 304 kts 294°
2026-05-04 17:58 49.76314 8.31365 10367 ft 319 kts 304°
2026-05-04 17:59 49.77825 8.28729 10566 ft 335 kts 314°
2026-05-04 17:59 49.79669 8.26391 10750 ft 350 kts 320°
2026-05-04 17:59 49.82484 8.20297 11143 ft 360 kts 283°
2026-05-04 18:00 49.83057 8.16508 11582 ft 362 kts 278°
2026-05-04 18:00 49.83728 8.12722 12036 ft 367 kts 285°
2026-05-04 18:00 49.84263 8.08862 12507 ft 366 kts 274°
2026-05-04 18:00 49.84569 8.04934 13010 ft 369 kts 274°
2026-05-04 18:01 49.84867 8.00971 13506 ft 371 kts 274°
2026-05-04 18:01 49.85163 7.96977 13986 ft 374 kts 274°
2026-05-04 18:01 49.85458 7.92957 14427 ft 377 kts 274°
2026-05-04 18:02 49.86050 7.84828 15305 ft 382 kts 274°
2026-05-04 18:02 49.86346 7.80725 15733 ft 384 kts 274°
2026-05-04 18:02 49.86629 7.76644 16150 ft 386 kts 272°
2026-05-04 18:02 49.86658 7.72476 16594 ft 387 kts 265°
2026-05-04 18:03 49.86526 7.68307 17037 ft 388 kts 264°
2026-05-04 18:03 49.86320 7.64127 17474 ft 391 kts 263°
2026-05-04 18:03 49.86069 7.59927 17900 ft 393 kts 262°
2026-05-04 18:03 49.85798 7.55694 18315 ft 395 kts 262°
2026-05-04 18:04 49.85521 7.51434 18684 ft 398 kts 262°
2026-05-04 18:04 49.85242 7.47129 18939 ft 401 kts 262°
2026-05-04 18:04 49.84693 7.38519 18998 ft 401 kts 262°
2026-05-04 18:05 49.84420 7.34211 19120 ft 403 kts 262°
2026-05-04 18:05 49.84145 7.29881 19443 ft 404 kts 262°
2026-05-04 18:05 49.83869 7.25527 19873 ft 405 kts 262°
2026-05-04 18:05 49.83594 7.21229 20267 ft 406 kts 262°
2026-05-04 18:06 49.83031 7.12494 21013 ft 409 kts 262°
2026-05-04 18:06 49.82744 7.08095 21370 ft 411 kts 262°
2026-05-04 18:06 49.82454 7.03673 21708 ft 414 kts 262°
2026-05-04 18:07 49.82160 6.99219 22050 ft 416 kts 262°
2026-05-04 18:07 49.81865 6.94789 22402 ft 417 kts 262°
2026-05-04 18:07 49.81566 6.90315 22744 ft 419 kts 262°
2026-05-04 18:07 49.81262 6.85801 23058 ft 421 kts 262°
2026-05-04 18:08 49.80957 6.81292 23423 ft 422 kts 262°
2026-05-04 18:08 49.80649 6.76762 23743 ft 423 kts 262°
2026-05-04 18:08 49.80338 6.72212 23998 ft 425 kts 262°
2026-05-04 18:08 49.80028 6.67708 24245 ft 427 kts 261°
2026-05-04 18:09 49.79394 6.58570 24736 ft 430 kts 261°
2026-05-04 18:09 49.78743 6.49301 25250 ft 433 kts 261°
2026-05-04 18:10 49.78414 6.44654 25454 ft 436 kts 261°
2026-05-04 18:10 49.78080 6.39980 25700 ft 437 kts 260°
2026-05-04 18:10 49.77744 6.35295 25947 ft 439 kts 260°
2026-05-04 18:10 49.77405 6.30589 26190 ft 439 kts 259°
2026-05-04 18:11 49.77067 6.25924 26471 ft 440 kts 259°
2026-05-04 18:11 49.76723 6.21214 26689 ft 442 kts 259°
2026-05-04 18:11 49.76381 6.16554 26881 ft 443 kts 259°
2026-05-04 18:11 49.76030 6.11801 27101 ft 445 kts 259°
2026-05-04 18:12 49.75675 6.07017 27317 ft 446 kts 259°
2026-05-04 18:12 49.75324 6.02292 27535 ft 448 kts 259°
2026-05-04 18:12 49.74965 5.97498 27747 ft 449 kts 258°
2026-05-04 18:12 49.74604 5.92700 27936 ft 450 kts 258°
2026-05-04 18:13 49.74123 5.87922 28153 ft 448 kts 252°
2026-05-04 18:13 49.73278 5.83308 28425 ft 444 kts 248°
2026-05-04 18:13 49.71274 5.74284 28885 ft 444 kts 246°
2026-05-04 18:14 49.70218 5.69772 29167 ft 443 kts 245°
2026-05-04 18:14 49.69161 5.65292 29448 ft 443 kts 245°
2026-05-04 18:14 49.68106 5.60831 29716 ft 442 kts 245°
2026-05-04 18:15 49.65998 5.51895 29976 ft 444 kts 245°
2026-05-04 18:15 49.63902 5.42992 29983 ft 442 kts 245°
2026-05-04 18:16 49.61812 5.34084 29972 ft 441 kts 246°
2026-05-04 18:16 49.59878 5.25085 29973 ft 443 kts 247°
2026-05-04 18:17 49.57242 5.11418 29971 ft 445 kts 250°
2026-05-04 18:18 49.54909 4.97569 29967 ft 445 kts 250°
2026-05-04 18:18 49.53288 4.88364 29973 ft 445 kts 250°
2026-05-04 18:19 49.50814 4.74633 29959 ft 446 kts 250°
2026-05-04 18:19 49.49144 4.65432 29960 ft 446 kts 250°
2026-05-04 18:20 49.47472 4.56249 29956 ft 446 kts 250°
2026-05-04 18:20 49.45789 4.47056 29951 ft 446 kts 250°
2026-05-04 18:21 49.44100 4.37875 29948 ft 447 kts 251°
2026-05-04 18:21 49.42403 4.28696 29963 ft 446 kts 251°
2026-05-04 18:22 49.40712 4.19586 29952 ft 446 kts 250°
2026-05-04 18:22 49.39002 4.10426 29946 ft 446 kts 250°
2026-05-04 18:23 49.37287 4.01291 29959 ft 446 kts 250°
2026-05-04 18:23 49.35634 3.92098 29940 ft 447 kts 253°
2026-05-04 18:24 49.34345 3.82791 29952 ft 448 kts 255°
2026-05-04 18:24 49.33094 3.73426 29953 ft 448 kts 254°
2026-05-04 18:25 49.32007 3.65671 29936 ft 447 kts 254°
2026-05-04 18:25 49.30658 3.56349 29948 ft 447 kts 254°
2026-05-04 18:26 49.29290 3.47028 29940 ft 449 kts 255°
2026-05-04 18:26 49.27919 3.37729 29939 ft 451 kts 255°
2026-05-04 18:27 49.26534 3.28363 29936 ft 451 kts 255°
2026-05-04 18:27 49.25143 3.19008 29936 ft 450 kts 254°
2026-05-04 18:28 49.23750 3.09706 29947 ft 447 kts 255°
2026-05-04 18:28 49.22350 3.00417 29941 ft 450 kts 255°
2026-05-04 18:29 49.20935 2.91082 29938 ft 451 kts 255°
2026-05-04 18:29 49.19511 2.81736 29938 ft 450 kts 254°
2026-05-04 18:30 49.17365 2.67754 29939 ft 450 kts 254°
2026-05-04 18:31 49.15930 2.58476 29942 ft 453 kts 255°
2026-05-04 18:31 49.14470 2.49095 29938 ft 455 kts 255°
2026-05-04 18:32 49.13044 2.39660 29935 ft 456 kts 258°
2026-05-04 18:32 49.12080 2.30089 29940 ft 456 kts 259°
2026-05-04 18:33 49.11190 2.20509 29944 ft 456 kts 259°
2026-05-04 18:33 49.10299 2.10905 29940 ft 457 kts 259°
2026-05-04 18:34 49.09399 2.01306 29935 ft 457 kts 260°
2026-05-04 18:34 49.08641 1.91667 29942 ft 458 kts 261°
2026-05-04 18:35 49.07949 1.82116 29943 ft 458 kts 261°
2026-05-04 18:35 49.07227 1.72531 29954 ft 457 kts 261°
2026-05-04 18:36 49.06476 1.62913 29950 ft 456 kts 260°
2026-05-04 18:36 49.05713 1.53328 29959 ft 455 kts 260°
2026-05-04 18:37 49.04942 1.43739 29960 ft 455 kts 260°
2026-05-04 18:37 49.04170 1.34232 29966 ft 455 kts 260°
2026-05-04 18:38 49.03398 1.24643 29963 ft 457 kts 262°
2026-05-04 18:38 49.03384 1.14890 29966 ft 462 kts 269°
2026-05-04 18:39 49.03669 1.05098 29968 ft 462 kts 269°
2026-05-04 18:39 49.03984 0.95314 29963 ft 462 kts 269°
2026-05-04 18:40 49.04279 0.85591 29959 ft 462 kts 269°
2026-05-04 18:40 49.04558 0.75753 29955 ft 466 kts 269°
2026-05-04 18:41 49.04828 0.65877 29952 ft 466 kts 269°
2026-05-04 18:41 49.05090 0.56002 29953 ft 466 kts 269°
2026-05-04 18:42 49.05344 0.46130 29955 ft 466 kts 269°
2026-05-04 18:42 49.05590 0.36228 29957 ft 467 kts 268°
2026-05-04 18:43 49.05825 0.26371 29953 ft 469 kts 268°
2026-05-04 18:43 49.06056 0.16438 29963 ft 469 kts 268°
2026-05-04 18:44 49.06278 0.06507 29967 ft 468 kts 268°
2026-05-04 18:44 49.06491 -0.03428 29991 ft 469 kts 266°
2026-05-04 18:45 49.06694 -0.13365 29978 ft 469 kts 266°
2026-05-04 18:45 49.06890 -0.23322 29987 ft 470 kts 266°
2026-05-04 18:46 49.07084 -0.33282 29985 ft 470 kts 266°
2026-05-04 18:46 49.07262 -0.43175 29994 ft 469 kts 266°
2026-05-04 18:47 49.07431 -0.53139 29995 ft 469 kts 266°
2026-05-04 18:47 49.07593 -0.63095 29992 ft 469 kts 266°
2026-05-04 18:48 49.07747 -0.73049 29983 ft 469 kts 266°
2026-05-04 18:48 49.07893 -0.82950 29988 ft 469 kts 266°
2026-05-04 18:49 49.08031 -0.92894 29980 ft 469 kts 266°
2026-05-04 18:49 49.08160 -1.02835 29979 ft 469 kts 266°
2026-05-04 18:50 49.08281 -1.12795 29996 ft 469 kts 266°
2026-05-04 18:50 49.09149 -1.22734 29977 ft 477 kts 277°
2026-05-04 18:51 49.10685 -1.32599 30003 ft 478 kts 279°
2026-05-04 18:51 49.12306 -1.42497 29982 ft 481 kts 279°
2026-05-04 18:52 49.13907 -1.52366 29977 ft 482 kts 278°
2026-05-04 18:52 49.15497 -1.62323 29979 ft 481 kts 278°
2026-05-04 18:53 49.17068 -1.72256 29982 ft 481 kts 278°
2026-05-04 18:53 49.18631 -1.82201 29987 ft 482 kts 278°
2026-05-04 18:54 49.20193 -1.92214 29992 ft 484 kts 278°
2026-05-04 18:54 49.21752 -2.02251 29995 ft 484 kts 277°
2026-05-04 18:55 49.23350 -2.12192 29984 ft 485 kts 279°
2026-05-04 18:55 49.25974 -2.27195 29992 ft 487 kts 279°
2026-05-04 18:56 49.27705 -2.37250 29991 ft 489 kts 279°
2026-05-04 18:56 49.29419 -2.47347 29992 ft 489 kts 279°
2026-05-04 18:57 49.31117 -2.57454 29993 ft 489 kts 279°
2026-05-04 18:57 49.32805 -2.67566 30024 ft 489 kts 280°
2026-05-04 18:58 49.34489 -2.77725 29994 ft 493 kts 281°
2026-05-04 18:58 49.36164 -2.87869 29995 ft 494 kts 280°
2026-05-04 18:59 49.37845 -2.98097 29997 ft 494 kts 280°
2026-05-04 18:59 49.39513 -3.08318 30000 ft 493 kts 280°
2026-05-04 19:00 49.41171 -3.18540 30001 ft 493 kts 281°
2026-05-04 19:00 49.42824 -3.28795 29996 ft 494 kts 281°
2026-05-04 19:01 49.44455 -3.38977 30006 ft 494 kts 281°
2026-05-04 19:01 49.46088 -3.49241 29999 ft 493 kts 281°
2026-05-04 19:02 49.47712 -3.59502 30015 ft 494 kts 281°
2026-05-04 19:02 49.49323 -3.69754 30004 ft 492 kts 281°
2026-05-04 19:03 49.50919 -3.79969 30008 ft 491 kts 281°
2026-05-04 19:03 49.52499 -3.90143 30005 ft 491 kts 281°
2026-05-04 19:04 49.54080 -4.00394 30009 ft 491 kts 281°
2026-05-04 19:04 49.55652 -4.10647 30005 ft 491 kts 281°
2026-05-04 19:05 49.57211 -4.20888 30011 ft 491 kts 281°
2026-05-04 19:05 49.58753 -4.31070 30010 ft 491 kts 281°
2026-05-04 19:06 49.60215 -4.41338 30006 ft 490 kts 278°
2026-05-04 19:06 49.61484 -4.51675 30024 ft 490 kts 278°
2026-05-04 19:07 49.62743 -4.62028 30009 ft 491 kts 278°
2026-05-04 19:07 49.64028 -4.72394 30009 ft 492 kts 279°
2026-05-04 19:08 49.65318 -4.82764 30008 ft 491 kts 279°
2026-05-04 19:08 49.66595 -4.93096 30008 ft 490 kts 278°
2026-05-04 19:09 49.67857 -5.03393 30008 ft 490 kts 278°
2026-05-04 19:09 49.69112 -5.13734 30009 ft 490 kts 278°
2026-05-04 19:10 49.70358 -5.24076 30017 ft 490 kts 278°
2026-05-04 19:10 49.71598 -5.34449 30019 ft 490 kts 278°
2026-05-04 19:11 49.72828 -5.44816 30020 ft 490 kts 279°
2026-05-04 19:11 49.74043 -5.55143 30015 ft 492 kts 279°
2026-05-04 19:12 49.75863 -5.70767 30017 ft 492 kts 278°
2026-05-04 19:13 49.77066 -5.81196 30023 ft 492 kts 278°
2026-05-04 19:13 49.77663 -5.86409 30158 ft 492 kts 278°
2026-05-04 19:13 49.78255 -5.91607 30417 ft 490 kts 279°
2026-05-04 19:13 49.78645 -5.95031 30642 ft 488 kts 279°
2026-05-04 19:14 49.79231 -6.00206 30899 ft 487 kts 279°
2026-05-04 19:14 49.79815 -6.05380 31074 ft 487 kts 279°
2026-05-04 19:14 49.80395 -6.10549 31263 ft 486 kts 279°
2026-05-04 19:14 49.80967 -6.15654 31433 ft 486 kts 279°
2026-05-04 19:15 49.81542 -6.20821 31571 ft 487 kts 279°
2026-05-04 19:15 49.82116 -6.25995 31759 ft 486 kts 279°
2026-05-04 19:15 49.82879 -6.32901 32030 ft 485 kts 279°
2026-05-04 19:15 49.83254 -6.36317 32149 ft 485 kts 279°
2026-05-04 19:16 49.83817 -6.41457 32344 ft 484 kts 279°
2026-05-04 19:16 49.84380 -6.46622 32519 ft 484 kts 279°
2026-05-04 19:16 49.84932 -6.51701 32695 ft 484 kts 279°
2026-05-04 19:16 49.85487 -6.56839 32860 ft 483 kts 279°
2026-05-04 19:17 49.86042 -6.61991 33035 ft 483 kts 279°
2026-05-04 19:17 49.86594 -6.67136 33182 ft 483 kts 279°
2026-05-04 19:17 49.87143 -6.72284 33346 ft 482 kts 279°
2026-05-04 19:17 49.87688 -6.77408 33501 ft 482 kts 279°
2026-05-04 19:18 49.88232 -6.82546 33648 ft 482 kts 280°
2026-05-04 19:18 49.89304 -6.92753 33840 ft 484 kts 280°
2026-05-04 19:18 49.89841 -6.97895 33996 ft 483 kts 279°
2026-05-04 19:19 49.90376 -7.03037 34129 ft 482 kts 279°
2026-05-04 19:19 49.91438 -7.13320 34339 ft 482 kts 279°
2026-05-04 19:19 49.91964 -7.18453 34450 ft 482 kts 279°
2026-05-04 19:20 49.92490 -7.23606 34553 ft 482 kts 279°
2026-05-04 19:20 49.93012 -7.28739 34662 ft 481 kts 279°
2026-05-04 19:20 49.93531 -7.33872 34752 ft 481 kts 280°
2026-05-04 19:21 49.94558 -7.44100 34931 ft 481 kts 279°
2026-05-04 19:21 49.95582 -7.54388 35090 ft 481 kts 280°
2026-05-04 19:22 49.96598 -7.64683 35249 ft 482 kts 280°
2026-05-04 19:22 49.97602 -7.74965 35441 ft 481 kts 280°
2026-05-04 19:23 49.98594 -7.85205 35515 ft 483 kts 280°
2026-05-04 19:23 49.99585 -7.95547 35660 ft 483 kts 280°
2026-05-04 19:24 50.00190 -8.05988 35764 ft 485 kts 275°
2026-05-04 19:24 50.00515 -8.16428 35865 ft 486 kts 274°
2026-05-04 19:25 50.00798 -8.26967 35926 ft 488 kts 274°
2026-05-04 19:25 50.01078 -8.37534 35997 ft 489 kts 274°
2026-05-04 19:26 50.01354 -8.48056 36063 ft 491 kts 274°
2026-05-04 19:26 50.01627 -8.58718 36066 ft 492 kts 274°
2026-05-04 19:27 50.01888 -8.69338 36061 ft 490 kts 274°
2026-05-04 19:27 50.02137 -8.79882 36075 ft 490 kts 274°
2026-05-04 19:28 50.02379 -8.90486 36075 ft 490 kts 274°
2026-05-04 19:28 50.02612 -9.01131 36080 ft 490 kts 274°
2026-05-04 19:29 50.02833 -9.11679 36080 ft 490 kts 274°
2026-05-04 19:29 50.03045 -9.22316 36081 ft 490 kts 275°
2026-05-04 19:30 50.03248 -9.32937 36083 ft 490 kts 274°
2026-05-04 19:30 50.03440 -9.43479 36087 ft 490 kts 274°
2026-05-04 19:31 50.03624 -9.54105 36095 ft 491 kts 275°
2026-05-04 19:32 50.03974 -9.76130 36094 ft 491 kts 275°
2026-05-04 19:32 50.04128 -9.86759 36095 ft 491 kts 274°
2026-05-04 19:33 50.04272 -9.97385 36097 ft 491 kts 274°
2026-05-04 19:33 50.04406 -10.07944 36100 ft 491 kts 274°
2026-05-04 19:34 50.04531 -10.18585 36106 ft 490 kts 275°
2026-05-04 19:34 50.04646 -10.29158 36110 ft 490 kts 275°
2026-05-04 19:35 50.04752 -10.39785 36115 ft 490 kts 275°
2026-05-04 19:35 50.04848 -10.50429 36119 ft 490 kts 274°
2026-05-04 19:36 50.04932 -10.60965 36119 ft 490 kts 275°
2026-05-04 19:36 50.05007 -10.71557 36125 ft 489 kts 274°
2026-05-04 19:37 50.05073 -10.82152 36124 ft 489 kts 274°
2026-05-04 19:37 50.05130 -10.92676 36130 ft 489 kts 274°
2026-05-04 19:38 50.05177 -11.03270 36120 ft 489 kts 274°
2026-05-04 19:38 50.05215 -11.13840 36140 ft 487 kts 274°
2026-05-04 19:39 50.05243 -11.24326 36127 ft 485 kts 274°
2026-05-04 19:39 50.05259 -11.33091 36153 ft 485 kts 274°
2026-05-04 19:40 50.05270 -11.43616 36148 ft 485 kts 274°
2026-05-04 19:40 50.05271 -11.54085 36143 ft 485 kts 274°
2026-05-04 19:41 50.05262 -11.64573 36156 ft 483 kts 274°
2026-05-04 19:41 50.05245 -11.75053 36131 ft 483 kts 274°
2026-05-04 19:42 50.05218 -11.85434 36157 ft 482 kts 273°
2026-05-04 19:42 50.05182 -11.95870 36154 ft 481 kts 273°
2026-05-04 19:43 50.05136 -12.06285 36169 ft 480 kts 273°
2026-05-04 19:43 50.05081 -12.16597 36173 ft 479 kts 273°
2026-05-04 19:44 50.05017 -12.26997 36176 ft 480 kts 273°
2026-05-04 19:44 50.04944 -12.37401 36181 ft 480 kts 272°
2026-05-04 19:45 50.04861 -12.47794 36178 ft 479 kts 272°
2026-05-04 19:45 50.04770 -12.58092 36182 ft 477 kts 272°
2026-05-04 19:46 50.04669 -12.68428 36180 ft 477 kts 272°
2026-05-04 19:46 50.04560 -12.78692 36192 ft 478 kts 272°
2026-05-04 19:47 50.04441 -12.89070 36180 ft 477 kts 272°
2026-05-04 19:47 50.04314 -12.99327 36191 ft 475 kts 272°
2026-05-04 19:48 50.04177 -13.09620 36198 ft 475 kts 272°
2026-05-04 19:48 50.04031 -13.19913 36200 ft 475 kts 272°
2026-05-04 19:49 50.03878 -13.30140 36208 ft 475 kts 271°
2026-05-04 19:49 50.03714 -13.40424 36205 ft 474 kts 271°
2026-05-04 19:50 50.03541 -13.50678 36209 ft 472 kts 271°
2026-05-04 19:50 50.03361 -13.60842 36211 ft 472 kts 271°
2026-05-04 19:51 50.03171 -13.71083 36210 ft 472 kts 271°
2026-05-04 19:51 50.02974 -13.81247 36208 ft 472 kts 271°
2026-05-04 19:52 50.02766 -13.91467 36214 ft 470 kts 271°
2026-05-04 19:52 50.02551 -14.01573 36215 ft 469 kts 271°
2026-05-04 19:53 50.02328 -14.11720 36215 ft 468 kts 270°
2026-05-04 19:53 50.02097 -14.21788 36219 ft 467 kts 270°
2026-05-04 19:54 50.01856 -14.31901 36219 ft 467 kts 270°
2026-05-04 19:54 50.01608 -14.41954 36226 ft 467 kts 270°
2026-05-04 19:55 50.01350 -14.52055 36225 ft 467 kts 270°
2026-05-04 19:55 50.01083 -14.62172 36224 ft 466 kts 270°
2026-05-04 19:56 50.00810 -14.72182 36221 ft 465 kts 270°
2026-05-04 19:56 50.00526 -14.82244 36230 ft 464 kts 270°
2026-05-04 19:57 50.00237 -14.92216 36233 ft 463 kts 269°
2026-05-04 19:57 50.00676 -15.02141 36236 ft 457 kts 286°
2026-05-04 19:58 50.02546 -15.11540 36236 ft 456 kts 291°
2026-05-04 19:58 50.04650 -15.20860 36238 ft 457 kts 291°
2026-05-04 19:59 50.06773 -15.30200 36238 ft 456 kts 291°
2026-05-04 19:59 50.08842 -15.39441 36243 ft 454 kts 291°
2026-05-04 20:00 50.10908 -15.48768 36244 ft 454 kts 291°
2026-05-04 20:00 50.12958 -15.58083 36254 ft 453 kts 291°
2026-05-04 20:01 50.14985 -15.67326 36253 ft 454 kts 291°
2026-05-04 20:01 50.17025 -15.76665 36252 ft 454 kts 290°
2026-05-04 20:02 50.19057 -15.86014 36253 ft 454 kts 290°
2026-05-04 20:02 50.21064 -15.95291 36257 ft 453 kts 290°
2026-05-04 20:03 50.23073 -16.04617 36257 ft 451 kts 290°
2026-05-04 20:03 50.25065 -16.13906 36262 ft 451 kts 290°
2026-05-04 20:04 50.27040 -16.23159 36268 ft 451 kts 290°
2026-05-04 20:04 50.29027 -16.32510 36259 ft 452 kts 289°
2026-05-04 20:05 50.30988 -16.41779 36268 ft 450 kts 289°
2026-05-04 20:05 50.32954 -16.51118 36270 ft 450 kts 289°
2026-05-04 20:06 50.34891 -16.60362 36270 ft 449 kts 289°
2026-05-04 20:06 50.36839 -16.69699 36276 ft 450 kts 289°
2026-05-04 20:07 50.38776 -16.79027 36275 ft 452 kts 289°
2026-05-04 20:07 50.40712 -16.88398 36271 ft 450 kts 289°
2026-05-04 20:08 50.42636 -16.97748 36283 ft 448 kts 289°
2026-05-04 20:08 50.44529 -17.06996 36283 ft 448 kts 288°
2026-05-04 20:09 50.46434 -17.16346 36290 ft 449 kts 288°
2026-05-04 20:09 50.48323 -17.25659 36289 ft 451 kts 288°
2026-05-04 20:10 50.50219 -17.35055 36289 ft 449 kts 288°
2026-05-04 20:10 50.52091 -17.44371 36286 ft 448 kts 288°
2026-05-04 20:11 50.53958 -17.53713 36293 ft 448 kts 288°
2026-05-04 20:11 50.55823 -17.63086 36294 ft 449 kts 288°
2026-05-04 20:12 50.57674 -17.72435 36294 ft 449 kts 288°
2026-05-04 20:12 50.59527 -17.81840 36303 ft 448 kts 288°
2026-05-04 20:13 50.61363 -17.91207 36306 ft 447 kts 288°
2026-05-04 20:13 50.63179 -18.00513 36307 ft 446 kts 288°
2026-05-04 20:14 50.65002 -18.09897 36307 ft 447 kts 288°
2026-05-04 20:14 50.66817 -18.19289 36306 ft 448 kts 288°
2026-05-04 20:15 50.68614 -18.28639 36312 ft 447 kts 287°
2026-05-04 20:15 50.70413 -18.38038 36312 ft 447 kts 287°
2026-05-04 20:16 50.72192 -18.47384 36322 ft 447 kts 287°
2026-05-04 20:16 50.73973 -18.56784 36310 ft 447 kts 287°
2026-05-04 20:17 50.75755 -18.66243 36322 ft 448 kts 287°
2026-05-04 20:17 50.77514 -18.75621 36322 ft 447 kts 287°
2026-05-04 20:18 50.79266 -18.85009 36324 ft 447 kts 287°
2026-05-04 20:18 50.81017 -18.94442 36330 ft 447 kts 287°
2026-05-04 20:19 50.82760 -19.03881 36332 ft 447 kts 287°
2026-05-04 20:19 50.84501 -19.13351 36337 ft 447 kts 287°
2026-05-04 20:20 50.86220 -19.22758 36338 ft 447 kts 287°
2026-05-04 20:20 50.87940 -19.32215 36337 ft 447 kts 287°
2026-05-04 20:21 50.89651 -19.41672 36340 ft 447 kts 287°
2026-05-04 20:21 50.92195 -19.55822 36347 ft 446 kts 287°
2026-05-04 20:22 50.93889 -19.65309 36343 ft 446 kts 287°
2026-05-04 20:22 50.95565 -19.74739 36352 ft 446 kts 287°
2026-05-04 20:23 50.97240 -19.84220 36350 ft 446 kts 287°
2026-05-04 20:23 50.98910 -19.93721 36349 ft 446 kts 287°
2026-05-04 20:24 51.00105 -20.03350 36357 ft 447 kts 277°
2026-05-04 20:24 51.00603 -20.13237 36350 ft 448 kts 276°
2026-05-04 20:25 51.00994 -20.23065 36351 ft 448 kts 275°
2026-05-04 20:25 51.01374 -20.32963 36360 ft 448 kts 276°
2026-05-04 20:26 51.01759 -20.42843 36357 ft 447 kts 276°
2026-05-04 20:26 51.02139 -20.52661 36358 ft 447 kts 276°
2026-05-04 20:27 51.02514 -20.62540 36364 ft 447 kts 276°
2026-05-04 20:27 51.02877 -20.72365 36361 ft 447 kts 276°
2026-05-04 20:28 51.03176 -20.80598 36366 ft 447 kts 275°
2026-05-04 20:28 51.03525 -20.90481 36366 ft 446 kts 275°
2026-05-04 20:29 51.03863 -21.00253 36365 ft 445 kts 275°
2026-05-04 20:29 51.04195 -21.10084 36372 ft 445 kts 275°
2026-05-04 20:30 51.04517 -21.19869 36374 ft 445 kts 275°
2026-05-04 20:30 51.04832 -21.29690 36376 ft 445 kts 275°
2026-05-04 20:31 51.05139 -21.39508 36380 ft 444 kts 275°
2026-05-04 20:31 51.05436 -21.49304 36379 ft 443 kts 275°
2026-05-04 20:32 51.05725 -21.59059 36382 ft 443 kts 275°
2026-05-04 20:32 51.06006 -21.68862 36382 ft 443 kts 274°
2026-05-04 20:33 51.06280 -21.78692 36383 ft 444 kts 274°
2026-05-04 20:33 51.06543 -21.88433 36384 ft 443 kts 274°
2026-05-04 20:34 51.06800 -21.98250 36387 ft 443 kts 274°
2026-05-04 20:34 51.07049 -22.08066 36387 ft 443 kts 274°
2026-05-04 20:35 51.07288 -22.17826 36392 ft 443 kts 274°
2026-05-04 20:35 51.07521 -22.27636 36393 ft 443 kts 274°
2026-05-04 20:36 51.07745 -22.37443 36394 ft 443 kts 274°
2026-05-04 20:36 51.07959 -22.47190 36398 ft 442 kts 273°
2026-05-04 20:37 51.08166 -22.56965 36398 ft 442 kts 273°
2026-05-04 20:37 51.08364 -22.66709 36398 ft 442 kts 273°
2026-05-04 20:38 51.08555 -22.76508 36400 ft 442 kts 273°
2026-05-04 20:38 51.08737 -22.86257 36395 ft 442 kts 273°
2026-05-04 20:39 51.08911 -22.96025 36406 ft 441 kts 273°
2026-05-04 20:39 51.09077 -23.05808 36406 ft 441 kts 273°
2026-05-04 20:40 51.09234 -23.15528 36409 ft 441 kts 272°
2026-05-04 20:40 51.09385 -23.25368 36408 ft 441 kts 272°
2026-05-04 20:41 51.09526 -23.35083 36409 ft 441 kts 272°
2026-05-04 20:41 51.09659 -23.44863 36411 ft 441 kts 272°
2026-05-04 20:42 51.09784 -23.54577 36411 ft 441 kts 272°
2026-05-04 20:42 51.09901 -23.64353 36411 ft 441 kts 272°
2026-05-04 20:43 51.10010 -23.74111 36414 ft 441 kts 272°
2026-05-04 20:43 51.10110 -23.83828 36416 ft 441 kts 272°
2026-05-04 20:44 51.10203 -23.93598 36412 ft 441 kts 272°
2026-05-04 20:44 51.10287 -24.03354 36419 ft 440 kts 272°
2026-05-04 20:45 51.10363 -24.13052 36419 ft 440 kts 272°
2026-05-04 20:45 51.10431 -24.22797 36419 ft 439 kts 271°
2026-05-04 20:46 51.10491 -24.32470 36422 ft 439 kts 271°
2026-05-04 20:46 51.10543 -24.42209 36420 ft 439 kts 271°
2026-05-04 20:47 51.10587 -24.51865 36422 ft 438 kts 271°
2026-05-04 20:47 51.10623 -24.61574 36429 ft 438 kts 271°
2026-05-04 20:48 51.10651 -24.71263 36424 ft 438 kts 271°
2026-05-04 20:48 51.10670 -24.80956 36427 ft 437 kts 271°
2026-05-04 20:49 51.10682 -24.90598 36427 ft 437 kts 271°
2026-05-04 20:49 51.10685 -25.00289 36429 ft 438 kts 271°
2026-05-04 20:50 51.10680 -25.09932 36435 ft 438 kts 271°
2026-05-04 20:50 51.10685 -25.19631 36432 ft 438 kts 271°
2026-05-04 20:51 51.10711 -25.29321 36436 ft 438 kts 271°
2026-05-04 20:51 51.10770 -25.39031 36434 ft 438 kts 271°
2026-05-04 20:52 51.10881 -25.48673 36436 ft 437 kts 272°
2026-05-04 20:52 51.11055 -25.58351 36459 ft 437 kts 272°
2026-05-04 20:53 51.11285 -25.68026 36454 ft 437 kts 273°
2026-05-04 20:53 51.11559 -25.77653 36443 ft 438 kts 273°
2026-05-04 20:54 51.11898 -25.87334 36455 ft 437 kts 274°
2026-05-04 20:54 51.12311 -25.96998 36467 ft 437 kts 275°
2026-05-04 20:55 51.12791 -26.06664 36454 ft 437 kts 275°
2026-05-04 20:55 51.13319 -26.16252 36464 ft 437 kts 276°
2026-05-04 20:56 51.13894 -26.25907 36459 ft 437 kts 276°
2026-05-04 20:56 51.14507 -26.35565 36452 ft 437 kts 276°
2026-05-04 20:57 51.15163 -26.45138 36460 ft 437 kts 277°
2026-05-04 20:57 51.15879 -26.54730 36462 ft 437 kts 277°
2026-05-04 20:58 51.16650 -26.64358 36442 ft 438 kts 277°
2026-05-04 20:58 51.17486 -26.73994 36405 ft 438 kts 278°
2026-05-04 20:59 51.18366 -26.83547 36435 ft 437 kts 278°
2026-05-04 20:59 51.19286 -26.93133 36450 ft 437 kts 279°
2026-05-04 21:00 51.20240 -27.02670 36418 ft 438 kts 279°
2026-05-04 21:00 51.21231 -27.12247 36406 ft 438 kts 279°
2026-05-04 21:01 51.22252 -27.21837 36404 ft 437 kts 279°
2026-05-04 21:01 51.23293 -27.31368 36385 ft 438 kts 280°
2026-05-04 21:02 51.24367 -27.40944 36375 ft 438 kts 280°
2026-05-04 21:02 51.25468 -27.50493 36375 ft 437 kts 280°
2026-05-04 21:03 51.26601 -27.60067 36364 ft 437 kts 281°
2026-05-04 21:03 51.27756 -27.69573 36357 ft 437 kts 281°
2026-05-04 21:04 51.28943 -27.79069 36347 ft 437 kts 281°
2026-05-04 21:04 51.30167 -27.88595 36349 ft 437 kts 281°
2026-05-04 21:05 51.31428 -27.98111 36340 ft 437 kts 282°
2026-05-04 21:05 51.32723 -28.07609 36339 ft 437 kts 282°
2026-05-04 21:06 51.34045 -28.17024 36347 ft 436 kts 282°
2026-05-04 21:06 51.35409 -28.26473 36333 ft 436 kts 283°
2026-05-04 21:07 51.36815 -28.35945 36297 ft 437 kts 283°
2026-05-04 21:07 51.38248 -28.45346 36302 ft 436 kts 284°
2026-05-04 21:08 51.39718 -28.54753 36340 ft 434 kts 284°
2026-05-04 21:08 51.41218 -28.64136 36289 ft 435 kts 284°
2026-05-04 21:09 51.42749 -28.73496 36249 ft 436 kts 285°
2026-05-04 21:09 51.44315 -28.82885 36258 ft 435 kts 285°
2026-05-04 21:10 51.45909 -28.92269 36267 ft 435 kts 285°
2026-05-04 21:10 51.47518 -29.01578 36220 ft 435 kts 285°
2026-05-04 21:11 51.49165 -29.10930 36194 ft 435 kts 286°
2026-05-04 21:11 51.50849 -29.20246 36243 ft 433 kts 287°
2026-05-04 21:12 51.52556 -29.29473 36224 ft 433 kts 287°
2026-05-04 21:12 51.54295 -29.38773 36103 ft 436 kts 287°
2026-05-04 21:13 51.56052 -29.48107 36099 ft 435 kts 287°
2026-05-04 21:13 51.57809 -29.57396 36183 ft 433 kts 287°
2026-05-04 21:14 51.59565 -29.66627 36122 ft 434 kts 288°
2026-05-04 21:14 51.61051 -29.74379 36046 ft 435 kts 288°
2026-05-04 21:15 51.62839 -29.83685 36082 ft 433 kts 288°
2026-05-04 21:15 51.64565 -29.92880 36180 ft 431 kts 288°
2026-05-04 21:16 51.66246 -30.02164 36031 ft 434 kts 287°
2026-05-04 21:16 51.67900 -30.11544 35951 ft 435 kts 287°
2026-05-04 21:17 51.69514 -30.20910 36063 ft 432 kts 287°
2026-05-04 21:17 51.71088 -30.30249 36056 ft 431 kts 286°
2026-05-04 21:18 51.72641 -30.39644 35931 ft 434 kts 286°
2026-05-04 21:18 51.74157 -30.48999 35923 ft 433 kts 286°
2026-05-04 21:19 51.75623 -30.58409 36133 ft 427 kts 286°
2026-05-04 21:19 51.77005 -30.67711 36178 ft 426 kts 285°
2026-05-04 21:20 51.77676 -30.72384 36045 ft 429 kts 285°
2026-05-04 21:20 51.78338 -30.77091 35914 ft 431 kts 285°
2026-05-04 21:20 51.79621 -30.86514 35916 ft 431 kts 284°
2026-05-04 21:21 51.80242 -30.91243 36026 ft 428 kts 284°
2026-05-04 21:21 51.80843 -30.95940 36112 ft 426 kts 284°
2026-05-04 21:21 51.82008 -31.05361 35987 ft 428 kts 283°
2026-05-04 21:22 51.83127 -31.14807 35843 ft 431 kts 283°
2026-05-04 21:22 51.84202 -31.24349 35947 ft 428 kts 282°
2026-05-04 21:23 51.85206 -31.33763 35999 ft 426 kts 282°
2026-05-04 21:23 51.86163 -31.43269 35856 ft 430 kts 282°
2026-05-04 21:24 51.87072 -31.52860 35814 ft 430 kts 281°
2026-05-04 21:24 51.87915 -31.62366 35914 ft 427 kts 281°
2026-05-04 21:25 51.88702 -31.71898 35877 ft 428 kts 280°
2026-05-04 21:25 51.89437 -31.81508 35726 ft 430 kts 280°
2026-05-04 21:26 51.90075 -31.91060 36072 ft 421 kts 279°
2026-05-04 21:26 51.90344 -31.95769 36260 ft 416 kts 279°
2026-05-04 21:26 51.90582 -32.00394 36259 ft 417 kts 278°
2026-05-04 21:27 51.90800 -32.05114 36070 ft 421 kts 278°
2026-05-04 21:27 51.90996 -32.09837 35835 ft 427 kts 277°
2026-05-04 21:27 51.91172 -32.14650 35724 ft 429 kts 277°
2026-05-04 21:27 51.91322 -32.19497 35810 ft 427 kts 277°
2026-05-04 21:28 51.91443 -32.24280 35987 ft 422 kts 276°
2026-05-04 21:28 51.91536 -32.29023 36134 ft 419 kts 276°
2026-05-04 21:28 51.91648 -32.38471 35983 ft 423 kts 275°
2026-05-04 21:29 51.91671 -32.43214 35786 ft 427 kts 275°
2026-05-04 21:29 51.91666 -32.48037 35802 ft 426 kts 275°
2026-05-04 21:29 51.91629 -32.52818 36019 ft 420 kts 274°
2026-05-04 21:29 51.91561 -32.57521 36227 ft 415 kts 274°
2026-05-04 21:30 51.91340 -32.66809 36142 ft 418 kts 273°
2026-05-04 21:30 51.91189 -32.71554 35904 ft 424 kts 272°
2026-05-04 21:30 51.91011 -32.76341 35757 ft 427 kts 272°
2026-05-04 21:31 51.90565 -32.85910 35964 ft 422 kts 271°
2026-05-04 21:31 51.90295 -32.90627 36129 ft 418 kts 270°
2026-05-04 21:32 51.89672 -32.99953 35992 ft 421 kts 270°
2026-05-04 21:32 51.88888 -33.09418 35914 ft 423 kts 268°
2026-05-04 21:33 51.87956 -33.18748 36062 ft 420 kts 267°
2026-05-04 21:33 51.86876 -33.28079 36015 ft 422 kts 265°
2026-05-04 21:34 51.85648 -33.37460 35874 ft 427 kts 264°
2026-05-04 21:34 51.84283 -33.46767 35963 ft 425 kts 263°
2026-05-04 21:35 51.82779 -33.56010 36035 ft 423 kts 262°
2026-05-04 21:35 51.81157 -33.65130 35957 ft 426 kts 261°
2026-05-04 21:36 51.79384 -33.74323 35872 ft 429 kts 259°
2026-05-04 21:36 51.77470 -33.83465 35956 ft 428 kts 258°
2026-05-04 21:37 51.75428 -33.92465 35960 ft 429 kts 257°
2026-05-04 21:37 51.73242 -34.01460 35913 ft 430 kts 255°
2026-05-04 21:38 51.70939 -34.10343 36025 ft 428 kts 254°
2026-05-04 21:38 51.68528 -34.19106 35957 ft 431 kts 253°
2026-05-04 21:39 51.65971 -34.27902 35883 ft 434 kts 252°
2026-05-04 21:39 51.63293 -34.36611 35920 ft 433 kts 250°
2026-05-04 21:40 51.60554 -34.45147 36063 ft 430 kts 250°
2026-05-04 21:40 51.57740 -34.53648 35999 ft 432 kts 249°
2026-05-04 21:41 51.54832 -34.62171 35869 ft 435 kts 248°
2026-05-04 21:41 51.51847 -34.70623 35973 ft 434 kts 247°
2026-05-04 21:42 51.48812 -34.78906 36009 ft 433 kts 246°
2026-05-04 21:42 51.45660 -34.87176 35974 ft 434 kts 245°
2026-05-04 21:43 51.42415 -34.95398 35937 ft 436 kts 244°
2026-05-04 21:43 51.39100 -35.03538 35964 ft 436 kts 244°
2026-05-04 21:44 51.35740 -35.11546 35997 ft 436 kts 243°
2026-05-04 21:44 51.32295 -35.19591 35927 ft 437 kts 242°
2026-05-04 21:45 51.28859 -35.27525 35951 ft 437 kts 242°
2026-05-04 21:45 51.25357 -35.35506 35953 ft 437 kts 242°
2026-05-04 21:46 51.21831 -35.43421 35925 ft 438 kts 241°
2026-05-04 21:46 51.18289 -35.51253 35925 ft 438 kts 240°
2026-05-04 21:47 51.14698 -35.59088 36000 ft 436 kts 240°
2026-05-04 21:47 51.11098 -35.66823 35994 ft 436 kts 240°
2026-05-04 21:48 51.07437 -35.74561 35934 ft 438 kts 239°
2026-05-04 21:48 51.03719 -35.82282 35940 ft 438 kts 239°
2026-05-04 21:49 50.99992 -35.89873 35984 ft 438 kts 238°
2026-05-04 21:49 50.96209 -35.97429 35957 ft 439 kts 238°
2026-05-04 21:50 50.92344 -36.04998 35915 ft 440 kts 237°
2026-05-04 21:50 50.88432 -36.12505 35952 ft 440 kts 237°
2026-05-04 21:51 50.84521 -36.19874 36004 ft 438 kts 236°
2026-05-04 21:51 50.80594 -36.27216 36154 ft 434 kts 236°
2026-05-04 21:52 50.76690 -36.34459 36097 ft 436 kts 235°
2026-05-04 21:52 50.72715 -36.41775 35978 ft 439 kts 235°
2026-05-04 21:53 50.68731 -36.49032 36010 ft 438 kts 234°
2026-05-04 21:53 50.66740 -36.52632 36138 ft 435 kts 234°
2026-05-04 21:53 50.64753 -36.56209 36277 ft 431 kts 234°
2026-05-04 21:54 50.60786 -36.63305 36301 ft 431 kts 234°
2026-05-04 21:54 50.58807 -36.66827 36173 ft 434 kts 234°
2026-05-04 21:54 50.56795 -36.70397 36072 ft 437 kts 234°
2026-05-04 21:55 50.52745 -36.77545 36070 ft 437 kts 233°
2026-05-04 21:55 50.48720 -36.84578 36309 ft 431 kts 233°
2026-05-04 21:56 50.44694 -36.91524 36353 ft 430 kts 232°
2026-05-04 21:56 50.42665 -36.94992 36224 ft 433 kts 232°
2026-05-04 21:56 50.40607 -36.98489 36095 ft 436 kts 232°
2026-05-04 21:57 50.36490 -37.05431 36079 ft 436 kts 232°
2026-05-04 21:57 50.32349 -37.12322 36285 ft 431 kts 231°
2026-05-04 21:58 50.28222 -37.19116 36340 ft 430 kts 231°
2026-05-04 21:58 50.24056 -37.25907 36157 ft 435 kts 231°
2026-05-04 21:59 50.19868 -37.32665 36109 ft 435 kts 230°
2026-05-04 21:59 50.15642 -37.39393 36257 ft 432 kts 229°
2026-05-04 22:00 50.11435 -37.46056 36346 ft 430 kts 230°
2026-05-04 22:00 50.07238 -37.52718 36288 ft 431 kts 230°
2026-05-04 22:01 50.03044 -37.59367 36206 ft 433 kts 229°
2026-05-04 22:01 49.98809 -37.66049 36261 ft 431 kts 229°
2026-05-04 22:02 49.95304 -37.71551 36306 ft 430 kts 228°
2026-05-04 22:02 49.90408 -37.79259 36266 ft 431 kts 229°
2026-05-04 22:03 49.86877 -37.84822 36220 ft 432 kts 229°
2026-05-04 22:03 49.82680 -37.91420 36253 ft 431 kts 228°
2026-05-04 22:04 49.78464 -37.98014 36282 ft 430 kts 228°
2026-05-04 22:04 49.74259 -38.04602 36306 ft 429 kts 228°
2026-05-04 22:05 49.70049 -38.11184 36231 ft 431 kts 228°
2026-05-04 22:05 49.65802 -38.17787 36172 ft 433 kts 228°
2026-05-04 22:06 49.61565 -38.24326 36240 ft 431 kts 227°
2026-05-04 22:06 49.57318 -38.30858 36284 ft 429 kts 227°
2026-05-04 22:07 49.53120 -38.37345 36269 ft 430 kts 227°
2026-05-04 22:07 49.48892 -38.43887 36215 ft 431 kts 227°
2026-05-04 22:08 49.44672 -38.50409 36236 ft 431 kts 227°
2026-05-04 22:08 49.40444 -38.56929 36261 ft 429 kts 227°
2026-05-04 22:09 49.36242 -38.63413 36239 ft 430 kts 227°
2026-05-04 22:09 49.32005 -38.69932 36212 ft 431 kts 227°
2026-05-04 22:10 49.27775 -38.76398 36227 ft 430 kts 227°
2026-05-04 22:10 49.23517 -38.82848 36244 ft 430 kts 226°
2026-05-04 22:11 49.19237 -38.89261 36219 ft 431 kts 226°
2026-05-04 22:11 49.14928 -38.95641 36206 ft 431 kts 226°
2026-05-04 22:12 49.10593 -39.01978 36212 ft 431 kts 225°
2026-05-04 22:12 49.06257 -39.08229 36216 ft 431 kts 225°
2026-05-04 22:13 49.01868 -39.14482 36238 ft 430 kts 224°
2026-05-04 22:13 48.97504 -39.20621 36267 ft 429 kts 224°
2026-05-04 22:14 48.93067 -39.26776 36227 ft 430 kts 224°
2026-05-04 22:14 48.88629 -39.32845 36204 ft 431 kts 223°
2026-05-04 22:15 48.84166 -39.38865 36263 ft 429 kts 223°
2026-05-04 22:15 48.79676 -39.44838 36328 ft 428 kts 222°
2026-05-04 22:16 48.75178 -39.50729 36264 ft 429 kts 222°
2026-05-04 22:16 48.70617 -39.56607 36202 ft 431 kts 221°
2026-05-04 22:17 48.66053 -39.62392 36298 ft 428 kts 220°
2026-05-04 22:17 48.63765 -39.65257 36407 ft 426 kts 220°
2026-05-04 22:17 48.61480 -39.68093 36473 ft 424 kts 220°
2026-05-04 22:18 48.56878 -39.73732 36388 ft 426 kts 220°
2026-05-04 22:18 48.52250 -39.79313 36223 ft 430 kts 219°
2026-05-04 22:19 48.47547 -39.84897 36327 ft 427 kts 219°
2026-05-04 22:19 48.45212 -39.87657 36437 ft 424 kts 219°
2026-05-04 22:19 48.42889 -39.90385 36520 ft 422 kts 219°
2026-05-04 22:20 48.38242 -39.95778 36416 ft 425 kts 218°
2026-05-04 22:20 48.35878 -39.98493 36258 ft 428 kts 218°
2026-05-04 22:20 48.33496 -40.01211 36181 ft 430 kts 218°
2026-05-04 22:21 48.28737 -40.06594 36303 ft 427 kts 217°
2026-05-04 22:21 48.26361 -40.09263 36458 ft 423 kts 217°
2026-05-04 22:21 48.24008 -40.11896 36602 ft 420 kts 217°
2026-05-04 22:22 48.19323 -40.17104 36553 ft 421 kts 217°
2026-05-04 22:22 48.16981 -40.19692 36427 ft 425 kts 217°
2026-05-04 22:22 48.14594 -40.22319 36299 ft 427 kts 217°
2026-05-04 22:23 48.09783 -40.27592 36345 ft 426 kts 216°
2026-05-04 22:23 48.07391 -40.30200 36502 ft 422 kts 216°
2026-05-04 22:23 48.05055 -40.32731 36655 ft 418 kts 216°
2026-05-04 22:24 48.00334 -40.37791 36702 ft 417 kts 216°
2026-05-04 22:24 47.97979 -40.40291 36556 ft 420 kts 216°
2026-05-04 22:24 47.95582 -40.42819 36412 ft 424 kts 215°
2026-05-04 22:24 47.93156 -40.45361 36290 ft 426 kts 216°
2026-05-04 22:25 47.90728 -40.47885 36290 ft 425 kts 216°
2026-05-04 22:25 47.85873 -40.52856 36490 ft 420 kts 214°
2026-05-04 22:25 47.83448 -40.55285 36591 ft 418 kts 214°
2026-05-04 22:26 47.81022 -40.57680 36603 ft 418 kts 214°
2026-05-04 22:26 47.76148 -40.62401 36418 ft 422 kts 213°
2026-05-04 22:27 47.71163 -40.67122 36310 ft 424 kts 213°
2026-05-04 22:27 47.66205 -40.71717 36490 ft 420 kts 212°
2026-05-04 22:28 47.61215 -40.76244 36515 ft 419 kts 212°
2026-05-04 22:28 47.56190 -40.80705 36345 ft 423 kts 211°
2026-05-04 22:29 47.51126 -40.85102 36331 ft 423 kts 211°
2026-05-04 22:29 47.46033 -40.89419 36404 ft 420 kts 211°
2026-05-04 22:30 47.40926 -40.93631 36368 ft 421 kts 210°
2026-05-04 22:30 47.35788 -40.97768 36252 ft 423 kts 210°
2026-05-04 22:31 47.30583 -41.01869 36296 ft 422 kts 209°
2026-05-04 22:31 47.25419 -41.05854 36375 ft 420 kts 209°
2026-05-04 22:32 47.20212 -41.09792 36292 ft 422 kts 208°
2026-05-04 22:32 47.14944 -41.13703 36214 ft 423 kts 208°
2026-05-04 22:33 47.09667 -41.17550 36268 ft 422 kts 208°
2026-05-04 22:33 47.04425 -41.21301 36279 ft 421 kts 207°
2026-05-04 22:34 46.99113 -41.25018 36204 ft 423 kts 207°
2026-05-04 22:34 46.93808 -41.28660 36193 ft 423 kts 207°
2026-05-04 22:35 46.88457 -41.32275 36245 ft 421 kts 206°
2026-05-04 22:35 46.83141 -41.35813 36229 ft 422 kts 206°
2026-05-04 22:36 46.77780 -41.39334 36203 ft 422 kts 206°
2026-05-04 22:36 46.72418 -41.42816 36238 ft 421 kts 206°
2026-05-04 22:37 46.67032 -41.46288 36200 ft 421 kts 206°
2026-05-04 22:37 46.61685 -41.49706 36113 ft 423 kts 206°
2026-05-04 22:38 46.56279 -41.53139 36085 ft 423 kts 206°
2026-05-04 22:38 46.50907 -41.56536 36139 ft 422 kts 206°
2026-05-04 22:39 46.45535 -41.59930 36126 ft 422 kts 206°
2026-05-04 22:39 46.40134 -41.63354 36063 ft 423 kts 206°
2026-05-04 22:40 46.34738 -41.66801 36078 ft 422 kts 207°
2026-05-04 22:40 46.29417 -41.70283 36065 ft 421 kts 207°
2026-05-04 22:41 46.24108 -41.73841 36011 ft 422 kts 208°
2026-05-04 22:41 46.18775 -41.77492 35968 ft 423 kts 208°
2026-05-04 22:42 46.13481 -41.81183 36025 ft 421 kts 209°
2026-05-04 22:42 46.08217 -41.84907 36032 ft 421 kts 210°
2026-05-04 22:43 46.02994 -41.88664 35970 ft 422 kts 210°
2026-05-04 22:43 45.97746 -41.92511 35945 ft 422 kts 210°
2026-05-04 22:44 45.92571 -41.96374 36021 ft 420 kts 212°
2026-05-04 22:44 45.87423 -42.00303 36029 ft 418 kts 212°
2026-05-04 22:45 45.82293 -42.04318 35895 ft 421 kts 213°
2026-05-04 22:45 45.74663 -42.10472 35922 ft 419 kts 213°
2026-05-04 22:46 45.69628 -42.14633 36066 ft 415 kts 214°
2026-05-04 22:46 45.64671 -42.18818 36085 ft 414 kts 215°
2026-05-04 22:47 45.59738 -42.23073 35933 ft 417 kts 216°
2026-05-04 22:47 45.54776 -42.27442 35916 ft 417 kts 216°
2026-05-04 22:48 45.52323 -42.29624 36019 ft 414 kts 217°
2026-05-04 22:48 45.49912 -42.31772 36121 ft 411 kts 217°
2026-05-04 22:48 45.45064 -42.36090 36081 ft 411 kts 217°
2026-05-04 22:49 45.42631 -42.38263 35944 ft 414 kts 217°
2026-05-04 22:49 45.40184 -42.40458 35835 ft 417 kts 217°
2026-05-04 22:49 45.36098 -42.44149 35829 ft 416 kts 217°
2026-05-04 22:50 45.33670 -42.46355 35954 ft 414 kts 217°
2026-05-04 22:50 45.30476 -42.49269 36078 ft 410 kts 217°
2026-05-04 22:50 45.26483 -42.52936 36049 ft 410 kts 218°
2026-05-04 22:51 45.21673 -42.57396 35855 ft 414 kts 218°
2026-05-04 22:51 45.16846 -42.61912 35854 ft 414 kts 218°
2026-05-04 22:52 45.12093 -42.66382 35999 ft 409 kts 218°
2026-05-04 22:52 45.07350 -42.70862 35929 ft 411 kts 218°
2026-05-04 22:53 45.02589 -42.75386 35746 ft 414 kts 218°
2026-05-04 22:53 44.97804 -42.79944 35719 ft 414 kts 218°
2026-05-04 22:54 44.93077 -42.84460 35861 ft 410 kts 219°
2026-05-04 22:54 44.88386 -42.88974 35926 ft 407 kts 219°
2026-05-04 22:55 44.83692 -42.93528 35750 ft 411 kts 220°
2026-05-04 22:55 44.78971 -42.98149 35684 ft 412 kts 220°
2026-05-04 22:56 44.74315 -43.02682 35974 ft 405 kts 220°
2026-05-04 22:56 44.71999 -43.04910 36075 ft 402 kts 220°
2026-05-04 22:56 44.69681 -43.07125 36049 ft 402 kts 220°
2026-05-04 22:57 44.67361 -43.09334 35936 ft 405 kts 220°
2026-05-04 22:57 44.65011 -43.11570 35765 ft 409 kts 220°
2026-05-04 22:57 44.60272 -43.16074 35703 ft 410 kts 220°
2026-05-04 22:58 44.57945 -43.18278 35874 ft 405 kts 220°
2026-05-04 22:58 44.55624 -43.20469 36090 ft 400 kts 220°
2026-05-04 22:58 44.53318 -43.22639 36204 ft 397 kts 220°
2026-05-04 22:58 44.51020 -43.24799 36143 ft 398 kts 220°
2026-05-04 22:59 44.48698 -43.26981 35953 ft 403 kts 220°
2026-05-04 22:59 44.46389 -43.29156 35757 ft 407 kts 220°
2026-05-04 22:59 44.41680 -43.33593 35740 ft 406 kts 221°
2026-05-04 23:00 44.39333 -43.35779 35995 ft 400 kts 221°
2026-05-04 23:00 44.37023 -43.37894 36278 ft 393 kts 221°
2026-05-04 23:00 44.34738 -43.39956 36389 ft 390 kts 221°
2026-05-04 23:00 44.32444 -43.42005 36282 ft 393 kts 220°
2026-05-04 23:01 44.30119 -43.44073 36018 ft 399 kts 220°
2026-05-04 23:01 44.27759 -43.46166 35763 ft 405 kts 220°
2026-05-04 23:01 44.23013 -43.50350 35787 ft 403 kts 221°
2026-05-04 23:02 44.20659 -43.52403 36101 ft 395 kts 221°
2026-05-04 23:02 44.18348 -43.54403 36389 ft 388 kts 221°
2026-05-04 23:02 44.13763 -43.58333 36315 ft 389 kts 221°
2026-05-04 23:03 44.11439 -43.60328 35981 ft 396 kts 221°
2026-05-04 23:03 44.09067 -43.62367 35706 ft 403 kts 221°
2026-05-04 23:03 44.04315 -43.66440 35756 ft 400 kts 222°
2026-05-04 23:04 44.01963 -43.68425 36110 ft 391 kts 222°
2026-05-04 23:04 43.99654 -43.70344 36437 ft 383 kts 222°
2026-05-04 23:04 43.95063 -43.74103 36333 ft 386 kts 221°
2026-05-04 23:05 43.92729 -43.76016 35985 ft 394 kts 221°
2026-05-04 23:05 43.90346 -43.77976 35710 ft 400 kts 221°
2026-05-04 23:05 43.85590 -43.81874 35869 ft 394 kts 223°
2026-05-04 23:06 43.83230 -43.83767 36295 ft 384 kts 223°
2026-05-04 23:06 43.80935 -43.85570 36667 ft 375 kts 223°
2026-05-04 23:06 43.76406 -43.89068 36495 ft 379 kts 222°
2026-05-04 23:07 43.74071 -43.90880 36078 ft 389 kts 222°
2026-05-04 23:07 43.71685 -43.92745 35757 ft 396 kts 222°
2026-05-04 23:07 43.66867 -43.96450 35883 ft 392 kts 222°
2026-05-04 23:08 43.64502 -43.98171 36256 ft 383 kts 222°
2026-05-04 23:08 43.62142 -43.99820 36581 ft 376 kts 221°
2026-05-04 23:08 43.57419 -44.02998 36387 ft 382 kts 221°
2026-05-04 23:09 43.55030 -44.04595 36025 ft 391 kts 220°
2026-05-04 23:09 43.52559 -44.06251 35728 ft 397 kts 220°
2026-05-04 23:09 43.47596 -44.09563 35931 ft 391 kts 220°
2026-05-04 23:10 43.45159 -44.11150 36271 ft 382 kts 220°
2026-05-04 23:10 43.42764 -44.12680 36546 ft 376 kts 220°
2026-05-04 23:10 43.37989 -44.15701 36312 ft 382 kts 220°
2026-05-04 23:11 43.35566 -44.17256 35968 ft 389 kts 220°
2026-05-04 23:11 43.33122 -44.18848 35687 ft 394 kts 220°
2026-05-04 23:11 43.28175 -44.22085 35796 ft 390 kts 220°
2026-05-04 23:12 43.25734 -44.23669 36005 ft 384 kts 220°
2026-05-04 23:12 43.23324 -44.25223 36133 ft 381 kts 220°
2026-05-04 23:12 43.18542 -44.28315 35942 ft 385 kts 220°
2026-05-04 23:13 43.16118 -44.29911 35746 ft 389 kts 220°
2026-05-04 23:13 43.13677 -44.31537 35622 ft 391 kts 220°
2026-05-04 23:13 43.08817 -44.34811 35747 ft 386 kts 220°
2026-05-04 23:14 43.06416 -44.36424 35891 ft 382 kts 220°
2026-05-04 23:14 43.04024 -44.38028 35924 ft 381 kts 220°
2026-05-04 23:14 42.99278 -44.41231 35702 ft 385 kts 221°
2026-05-04 23:15 42.96876 -44.42874 35589 ft 387 kts 221°
2026-05-04 23:15 42.94458 -44.44546 35493 ft 388 kts 220°
2026-05-04 23:15 42.89668 -44.47900 35505 ft 387 kts 220°
2026-05-04 23:16 42.84897 -44.51232 35581 ft 384 kts 220°
2026-05-04 23:16 42.80154 -44.54542 35525 ft 385 kts 220°
2026-05-04 23:17 42.75355 -44.57922 35430 ft 387 kts 220°
2026-05-04 23:17 42.70633 -44.61308 35454 ft 384 kts 221°
2026-05-04 23:18 42.66007 -44.64878 35450 ft 381 kts 223°
2026-05-04 23:18 42.61507 -44.68598 35378 ft 379 kts 224°
2026-05-04 23:19 42.57069 -44.72467 35325 ft 378 kts 224°
2026-05-04 23:19 42.52691 -44.76479 35141 ft 380 kts 225°
2026-05-04 23:20 42.48387 -44.80623 35031 ft 381 kts 226°
2026-05-04 23:20 42.44131 -44.84870 35181 ft 376 kts 227°
2026-05-04 23:21 42.40002 -44.89098 35225 ft 374 kts 227°
2026-05-04 23:21 42.35876 -44.93453 35054 ft 377 kts 228°
2026-05-04 23:22 42.31805 -44.97935 34984 ft 377 kts 229°
2026-05-04 23:22 42.27834 -45.02442 35124 ft 372 kts 230°
2026-05-04 23:23 42.23920 -45.06992 35137 ft 371 kts 230°
2026-05-04 23:23 42.20057 -45.11602 34980 ft 374 kts 231°
2026-05-04 23:24 42.16207 -45.16314 34967 ft 373 kts 231°
2026-05-04 23:24 42.12412 -45.21054 35102 ft 369 kts 232°
2026-05-04 23:25 42.08687 -45.25788 35062 ft 369 kts 232°
2026-05-04 23:25 42.04997 -45.30585 34947 ft 371 kts 232°
2026-05-04 23:26 42.01318 -45.35474 34955 ft 369 kts 233°
2026-05-04 23:26 41.97677 -45.40366 34878 ft 371 kts 233°
2026-05-04 23:27 41.94041 -45.45311 34819 ft 373 kts 233°
2026-05-04 23:27 41.90458 -45.50312 34842 ft 370 kts 234°
2026-05-04 23:28 41.86974 -45.55392 34859 ft 368 kts 235°
2026-05-04 23:28 41.83595 -45.60523 34816 ft 369 kts 236°
2026-05-04 23:29 41.80260 -45.65779 34796 ft 369 kts 237°
2026-05-04 23:29 41.77030 -45.71047 34841 ft 366 kts 237°
2026-05-04 23:30 41.73853 -45.76392 34852 ft 365 kts 238°
2026-05-04 23:30 41.70763 -45.81755 34817 ft 366 kts 239°
2026-05-04 23:31 41.67710 -45.87221 34804 ft 365 kts 239°
2026-05-04 23:31 41.64744 -45.92700 34833 ft 364 kts 240°
2026-05-04 23:32 41.61849 -45.98218 34832 ft 363 kts 241°
2026-05-04 23:32 41.58997 -46.03828 34800 ft 364 kts 241°
2026-05-04 23:33 41.56232 -46.09444 34812 ft 363 kts 242°
2026-05-04 23:33 41.53523 -46.15124 34847 ft 361 kts 243°
2026-05-04 23:34 41.50883 -46.20840 34844 ft 361 kts 243°
2026-05-04 23:34 41.48323 -46.26562 34819 ft 361 kts 244°
2026-05-04 23:35 41.45807 -46.32368 34821 ft 361 kts 245°
2026-05-04 23:35 41.43370 -46.38172 34832 ft 360 kts 245°
2026-05-04 23:36 41.40977 -46.44051 34809 ft 360 kts 246°
2026-05-04 23:36 41.38654 -46.49946 34768 ft 361 kts 246°
2026-05-04 23:37 41.36375 -46.55905 34807 ft 359 kts 247°
2026-05-04 23:37 41.34532 -46.60860 34820 ft 359 kts 248°
2026-05-04 23:38 41.32372 -46.66830 34769 ft 359 kts 248°
2026-05-04 23:38 41.30257 -46.72877 34711 ft 361 kts 248°
2026-05-04 23:39 41.28197 -46.78961 34792 ft 359 kts 249°
2026-05-04 23:39 41.26195 -46.84973 34930 ft 355 kts 249°
2026-05-04 23:40 41.24214 -46.91022 34887 ft 356 kts 249°
2026-05-04 23:40 41.22277 -46.97079 34752 ft 359 kts 250°
2026-05-04 23:41 41.20376 -47.03200 34774 ft 359 kts 250°
2026-05-04 23:41 41.18524 -47.09332 34875 ft 356 kts 251°
2026-05-04 23:42 41.16728 -47.15456 34846 ft 357 kts 251°
2026-05-04 23:42 41.14964 -47.21659 34758 ft 359 kts 251°
2026-05-04 23:43 41.13265 -47.27848 34783 ft 358 kts 252°
2026-05-04 23:43 41.11617 -47.34070 34833 ft 356 kts 252°
2026-05-04 23:44 41.10031 -47.40287 34804 ft 357 kts 253°
2026-05-04 23:44 41.08499 -47.46532 34778 ft 358 kts 253°
2026-05-04 23:45 41.07013 -47.52839 34801 ft 357 kts 254°
2026-05-04 23:45 41.05592 -47.59133 34822 ft 356 kts 254°
2026-05-04 23:46 41.04240 -47.65423 34784 ft 357 kts 255°
2026-05-04 23:46 41.02941 -47.71790 34820 ft 357 kts 256°
2026-05-04 23:47 41.01704 -47.78142 34929 ft 354 kts 256°
2026-05-04 23:47 41.00532 -47.84447 34956 ft 354 kts 257°
2026-05-04 23:48 40.99407 -47.90823 34853 ft 356 kts 257°
2026-05-04 23:48 40.98354 -47.97187 34904 ft 355 kts 257°
2026-05-04 23:49 40.97369 -48.03581 34995 ft 352 kts 258°
2026-05-04 23:49 40.96463 -48.09930 34937 ft 354 kts 259°
2026-05-04 23:50 40.95616 -48.16366 34879 ft 356 kts 259°
2026-05-04 23:50 40.94839 -48.22831 34915 ft 355 kts 260°
2026-05-04 23:51 40.94143 -48.29288 34972 ft 353 kts 261°
2026-05-04 23:51 40.93551 -48.35695 34997 ft 353 kts 261°
2026-05-04 23:52 40.93067 -48.42185 35014 ft 353 kts 262°
2026-05-04 23:52 40.92695 -48.48677 35016 ft 354 kts 263°
2026-05-04 23:53 40.92428 -48.55145 34998 ft 354 kts 264°
2026-05-04 23:53 40.92258 -48.61673 34996 ft 355 kts 265°
2026-05-04 23:54 40.92185 -48.68167 35001 ft 355 kts 266°
2026-05-04 23:54 40.92206 -48.74704 34964 ft 356 kts 266°
2026-05-04 23:55 40.92318 -48.81288 34893 ft 359 kts 267°
2026-05-04 23:56 40.92676 -48.91161 35068 ft 356 kts 269°
2026-05-04 23:56 40.93035 -48.97683 35078 ft 356 kts 269°
2026-05-04 23:57 40.93481 -49.04209 34940 ft 360 kts 270°
2026-05-04 23:57 40.94021 -49.10819 34931 ft 361 kts 271°
2026-05-04 23:58 40.94648 -49.17363 35052 ft 358 kts 272°
2026-05-04 23:58 40.95358 -49.23879 35145 ft 357 kts 272°
2026-05-04 23:59 40.96138 -49.30388 35123 ft 358 kts 273°
2026-05-04 23:59 40.96982 -49.36872 35060 ft 360 kts 274°
2026-05-05 00:00 40.97904 -49.43401 35071 ft 360 kts 274°
2026-05-05 00:00 40.98893 -49.49860 35138 ft 359 kts 275°
2026-05-05 00:01 40.99966 -49.56331 35166 ft 360 kts 275°
2026-05-05 00:01 41.01131 -49.62774 35258 ft 359 kts 276°
2026-05-05 00:02 41.02374 -49.69139 35279 ft 358 kts 277°
2026-05-05 00:02 41.03701 -49.75530 35197 ft 361 kts 277°
2026-05-05 00:03 41.05106 -49.81950 35156 ft 362 kts 278°
2026-05-05 00:03 41.06565 -49.88300 35206 ft 362 kts 279°
2026-05-05 00:04 41.08086 -49.94643 35242 ft 361 kts 279°
2026-05-05 00:04 41.09676 -50.00995 35187 ft 363 kts 280°
2026-05-05 00:05 41.11333 -50.07343 35157 ft 364 kts 280°
2026-05-05 00:05 41.13040 -50.13644 35186 ft 364 kts 281°
2026-05-05 00:06 41.14807 -50.19940 35297 ft 363 kts 281°
2026-05-05 00:06 41.16617 -50.26188 35384 ft 361 kts 282°
2026-05-05 00:07 41.18456 -50.32364 35317 ft 363 kts 282°
2026-05-05 00:07 41.20364 -50.38607 35225 ft 365 kts 282°
2026-05-05 00:08 41.22319 -50.44851 35234 ft 365 kts 282°
2026-05-05 00:08 41.24285 -50.51053 35237 ft 366 kts 282°
2026-05-05 00:09 41.26266 -50.57297 35199 ft 366 kts 282°
2026-05-05 00:09 41.28252 -50.63508 35209 ft 366 kts 282°
2026-05-05 00:10 41.30271 -50.69732 35230 ft 366 kts 283°
2026-05-05 00:10 41.32313 -50.75941 35235 ft 367 kts 283°
2026-05-05 00:11 41.34371 -50.82139 35218 ft 367 kts 283°
2026-05-05 00:11 41.36460 -50.88350 35230 ft 367 kts 283°
2026-05-05 00:12 41.38562 -50.94502 35246 ft 367 kts 283°
2026-05-05 00:12 41.40714 -51.00693 35220 ft 368 kts 284°
2026-05-05 00:13 41.42900 -51.06867 35270 ft 368 kts 284°
2026-05-05 00:13 41.45100 -51.12976 35324 ft 366 kts 284°
2026-05-05 00:14 41.47337 -51.19104 35295 ft 367 kts 284°
2026-05-05 00:14 41.49600 -51.25251 35221 ft 369 kts 284°
2026-05-05 00:15 41.51875 -51.31361 35302 ft 369 kts 284°
2026-05-05 00:15 41.54179 -51.37428 35458 ft 365 kts 285°
2026-05-05 00:16 41.56501 -51.43458 35443 ft 365 kts 285°
2026-05-05 00:16 41.58853 -51.49526 35268 ft 370 kts 285°
2026-05-05 00:17 41.61219 -51.55595 35280 ft 369 kts 285°
2026-05-05 00:17 41.63605 -51.61655 35459 ft 365 kts 285°
2026-05-05 00:18 41.65975 -51.67659 35459 ft 365 kts 285°
2026-05-05 00:18 41.68335 -51.73665 35286 ft 369 kts 285°
2026-05-05 00:19 41.70724 -51.79769 35273 ft 369 kts 285°
2026-05-05 00:19 41.71912 -51.82797 35382 ft 367 kts 285°
2026-05-05 00:19 41.73108 -51.85812 35481 ft 365 kts 285°
2026-05-05 00:20 41.75518 -51.91759 35568 ft 364 kts 285°
2026-05-05 00:20 41.77978 -51.97727 35418 ft 367 kts 285°
2026-05-05 00:21 41.80481 -52.03743 35324 ft 370 kts 286°
2026-05-05 00:21 41.82988 -52.09697 35466 ft 367 kts 286°
2026-05-05 00:22 41.85537 -52.15618 35578 ft 365 kts 286°
2026-05-05 00:22 41.88102 -52.21473 35519 ft 367 kts 287°
2026-05-05 00:23 41.90725 -52.27407 35382 ft 370 kts 287°
2026-05-05 00:23 41.93368 -52.33330 35413 ft 369 kts 287°
2026-05-05 00:23 41.94696 -52.36275 35521 ft 368 kts 287°
2026-05-05 00:24 41.96010 -52.39170 35601 ft 366 kts 287°
2026-05-05 00:24 41.98670 -52.44981 35653 ft 364 kts 287°
2026-05-05 00:25 42.00893 -52.49816 35547 ft 367 kts 287°
2026-05-05 00:25 42.04046 -52.56647 35395 ft 370 kts 287°
2026-05-05 00:26 42.06333 -52.61557 35475 ft 368 kts 288°
2026-05-05 00:26 42.09055 -52.67329 35565 ft 366 kts 288°
2026-05-05 00:27 42.11809 -52.73131 35467 ft 368 kts 288°
2026-05-05 00:27 42.14585 -52.78971 35351 ft 371 kts 288°
2026-05-05 00:28 42.17356 -52.84764 35497 ft 368 kts 288°
2026-05-05 00:28 42.18758 -52.87659 35610 ft 366 kts 288°
2026-05-05 00:28 42.20153 -52.90517 35660 ft 364 kts 288°
2026-05-05 00:29 42.22943 -52.96191 35599 ft 366 kts 288°
2026-05-05 00:29 42.24365 -52.99073 35487 ft 368 kts 289°
2026-05-05 00:29 42.25801 -53.01978 35391 ft 370 kts 289°
2026-05-05 00:30 42.28665 -53.07729 35397 ft 370 kts 289°
2026-05-05 00:30 42.30113 -53.10603 35531 ft 368 kts 289°
2026-05-05 00:30 42.31560 -53.13454 35613 ft 366 kts 289°
2026-05-05 00:31 42.34450 -53.19123 35643 ft 365 kts 289°